FW8871 Weather Reports


Display with metric or nautical units.
time (UTC)temp
F
wind
direction
speed
MPH
gust
MPH
rain 1hr
in
rain 24hr
in
rain mn
in
humidity
%
barometer
mb
20260502203052 70 0 5.0 8.0 0.00 0.00 0.00 29 1020.3
20260502202546 69 0 3.0 12.0 0.00 0.00 0.00 31 1020.4
20260502202049 69 300 4.0 12.0 0.00 0.00 0.00 30 1020.6
20260502201555 70 268 5.0 12.0 0.00 0.00 0.00 30 1020.6
20260502201048 70 149 4.0 10.0 0.00 0.00 0.00 31 1020.6
20260502200547 69 0 0.0 6.0 0.00 0.00 0.00 32 1020.8
20260502200101 69 217 0.0 13.0 0.00 0.00 0.00 32 1020.8
20260502195548 68 0 0.0 13.0 0.00 0.00 0.00 32 1020.9
20260502195048 69 283 3.0 8.0 0.00 0.00 0.00 31 1020.8
20260502194559 69 0 1.0 9.0 0.00 0.00 0.00 35 1020.9
20260502194045 68 0 5.0 9.0 0.00 0.00 0.00 32 1020.9
20260502193547 68 278 1.0 10.0 0.00 0.00 0.00 34 1020.9
20260502193051 68 101 4.0 10.0 0.00 0.00 0.00 32 1021.1
20260502192550 68 270 3.0 10.0 0.00 0.00 0.00 34 1021.1
20260502192047 68 0 0.0 8.0 0.00 0.00 0.00 35 1021.2
20260502191555 67 0 3.0 8.0 0.00 0.00 0.00 35 1021.4
20260502191049 67 271 5.0 8.0 0.00 0.00 0.00 37 1021.4
20260502190547 67 0 0.0 3.0 0.00 0.00 0.00 38 1021.4
20260502185546 66 0 4.0 11.0 0.00 0.00 0.00 38 1021.4
20260502185052 66 149 5.0 11.0 0.00 0.00 0.00 39 1021.5
20260502184557 65 0 0.0 8.0 0.00 0.00 0.00 41 1021.5
20260502184049 65 0 0.0 9.0 0.00 0.00 0.00 40 1021.6
20260502183549 65 44 3.0 12.0 0.00 0.00 0.00 41 1021.6
20260502183051 65 26 3.0 13.0 0.00 0.00 0.00 41 1021.8
20260502182548 65 93 6.0 13.0 0.00 0.00 0.00 42 1021.9
20260502182047 65 91 6.0 12.0 0.00 0.00 0.00 41 1021.9
20260502181556 65 139 7.0 13.0 0.00 0.00 0.00 42 1022.0
20260502181047 65 107 5.0 13.0 0.00 0.00 0.00 41 1022.0
20260502180547 65 70 4.0 10.0 0.00 0.00 0.00 42 1022.0
20260502180121 64 0 0.0 11.0 0.00 0.00 0.00 43 1022.1
20260502164047 61 89 6.0 19.0 0.00 0.00 0.00 53 1022.8
20260502163547 60 96 6.0 14.0 0.00 0.00 0.00 53 1022.7
20260502163053 60 144 10.0 14.0 0.00 0.00 0.00 52 1022.7
20260502162546 60 70 4.0 12.0 0.00 0.00 0.00 54 1022.6
20260502162049 59 79 6.0 12.0 0.00 0.00 0.00 55 1022.7
20260502161559 59 120 8.0 13.0 0.00 0.00 0.00 55 1022.7
20260502161045 59 131 5.0 13.0 0.00 0.00 0.00 56 1022.8
20260502160548 59 94 7.0 13.0 0.00 0.00 0.00 55 1022.8
20260502152049 57 75 2.0 13.0 0.00 0.00 0.00 60 1022.7
20260502151608 57 75 5.0 13.0 0.00 0.00 0.00 60 1022.7
20260502151050 56 149 6.0 13.0 0.00 0.00 0.00 60 1022.7
20260502150547 56 104 5.0 11.0 0.00 0.00 0.00 61 1022.8
20260502130547 43 82 2.0 6.0 0.00 0.00 0.00 88 1022.0
20260502123548 38 0 0.0 0.0 0.00 0.00 0.00 90 1021.7
20260502123058 37 0 0.0 0.0 0.00 0.00 0.00 90 1021.7
20260502122550 37 0 0.0 0.0 0.00 0.00 0.00 90 1021.6
20260502122048 36 0 0.0 0.0 0.00 0.00 0.00 89 1021.3
20260502121603 36 0 0.0 0.0 0.00 0.00 0.00 89 1021.3
20260502121048 36 0 0.0 0.0 0.00 0.00 0.00 89 1021.2
20260502120548 36 0 0.0 0.0 0.00 0.00 0.00 89 1021.1
20260502115551 36 0 0.0 4.0 0.00 0.00 0.00 90 1021.1
20260502115048 36 0 0.0 4.0 0.00 0.00 0.00 90 1021.0
20260502114550 36 0 0.0 4.0 0.00 0.00 0.00 90 1020.9
20260502114048 35 0 0.0 1.0 0.00 0.00 0.00 89 1020.9
20260502113549 35 0 0.0 0.0 0.00 0.00 0.00 89 1020.7
20260502113057 35 0 0.0 0.0 0.00 0.00 0.00 89 1020.8
20260502112549 35 0 0.0 0.0 0.00 0.00 0.00 89 1020.7
20260502112048 35 0 0.0 0.0 0.00 0.00 0.00 88 1020.8
20260502111559 36 0 0.0 0.0 0.00 0.00 0.00 89 1020.8
20260502111048 36 0 0.0 5.0 0.00 0.00 0.00 90 1020.9
20260502110549 36 0 0.0 5.0 0.00 0.00 0.00 90 1020.9
20260502110055 35 0 0.0 0.0 0.00 0.00 0.00 89 1020.6
20260502105547 35 0 0.0 0.0 0.00 0.00 0.00 88 1020.6
20260502105046 35 0 0.0 0.0 0.00 0.00 0.00 88 1020.6
20260502104554 35 0 0.0 0.0 0.00 0.00 0.00 88 1020.5
20260502104047 35 0 0.0 0.0 0.00 0.00 0.00 88 1020.6
20260502103549 35 0 0.0 0.0 0.00 0.00 0.00 88 1020.5
20260502103105 36 0 0.0 0.0 0.00 0.00 0.00 89 1020.4
20260502102548 35 0 0.0 0.0 0.00 0.00 0.00 88 1020.2
20260502102048 35 0 0.0 0.0 0.00 0.00 0.00 87 1020.2
20260502101620 36 0 0.0 0.0 0.00 0.00 0.00 87 1020.2
20260502101048 36 0 0.0 0.0 0.00 0.00 0.00 88 1020.2
20260502100549 36 0 0.0 0.0 0.00 0.00 0.00 88 1020.1
20260502100110 36 0 0.0 0.0 0.00 0.00 0.00 88 1020.1
20260502091046 36 0 0.0 0.0 0.00 0.00 0.00 87 1019.9
20260502090551 37 0 0.0 0.0 0.00 0.00 0.00 87 1019.9
20260502080105 37 0 0.0 0.0 0.00 0.00 0.00 82 1020.0
20260502071047 40 0 0.0 0.0 0.00 0.00 0.00 80 1020.1
20260502070548 41 0 0.0 0.0 0.00 0.00 0.00 79 1020.2
20260502070050 41 0 0.0 7.0 0.00 0.00 0.00 79 1020.2
20260502065548 42 0 1.0 7.0 0.00 0.00 0.00 79 1020.2
20260502065046 42 355 1.0 7.0 0.00 0.00 0.00 77 1020.3
20260502064550 43 0 0.0 0.0 0.00 0.00 0.00 78 1020.2
20260502064047 43 0 0.0 0.0 0.00 0.00 0.00 78 1020.1
20260502063546 43 0 0.0 0.0 0.00 0.00 0.00 78 1020.2
20260502063054 43 0 0.0 0.0 0.00 0.00 0.00 77 1020.3
20260502062547 43 0 0.0 0.0 0.00 0.00 0.00 76 1020.1
20260502062046 44 0 0.0 0.0 0.00 0.00 0.00 75 1020.0
20260502061551 44 0 0.0 0.0 0.00 0.00 0.00 75 1020.0
20260502061046 45 0 0.0 0.0 0.00 0.00 0.00 76 1020.1
20260502060545 45 0 0.0 0.0 0.00 0.00 0.00 75 1020.0
20260502060107 45 0 0.0 0.0 0.00 0.00 0.00 75 1020.0
20260502055547 45 0 0.0 0.0 0.00 0.00 0.00 74 1020.1
20260502055047 45 0 0.0 0.0 0.00 0.00 0.00 74 1020.2
20260502054553 46 0 0.0 0.0 0.00 0.00 0.00 74 1020.1
20260502054047 45 0 0.0 0.0 0.00 0.00 0.00 75 1020.1
20260502053547 45 0 0.0 0.0 0.00 0.00 0.00 73 1020.2
20260502053103 45 0 0.0 0.0 0.00 0.00 0.00 73 1020.2
20260502052547 46 0 0.0 0.0 0.00 0.00 0.00 72 1020.2
20260502052047 46 0 0.0 0.0 0.00 0.00 0.00 69 1020.2
20260502051559 47 0 0.0 0.0 0.00 0.00 0.00 70 1020.2
20260502051048 47 0 0.0 0.0 0.00 0.00 0.00 70 1020.2
20260502050551 48 0 0.0 0.0 0.00 0.00 0.00 69 1020.3
20260502050056 49 0 0.0 5.0 0.00 0.00 0.00 69 1020.2
20260502045549 49 0 0.0 7.0 0.00 0.00 0.00 68 1020.1
20260502045048 50 0 4.0 12.0 0.00 0.00 0.00 68 1020.0
20260502044551 50 318 5.0 12.0 0.00 0.00 0.00 67 1019.8
20260502044048 50 233 5.0 12.0 0.00 0.00 0.00 69 1019.7
20260502043548 49 0 0.0 4.0 0.00 0.00 0.00 69 1019.9
20260502043052 50 0 0.0 4.0 0.00 0.00 0.00 67 1019.8
20260502042548 50 0 0.0 4.0 0.00 0.00 0.00 68 1019.7
20260502042048 51 0 0.0 7.0 0.00 0.00 0.00 67 1019.6
20260502041552 51 0 0.0 7.0 0.00 0.00 0.00 68 1019.6
20260502041050 51 0 1.0 7.0 0.00 0.00 0.00 68 1019.5
20260502040545 50 0 0.0 0.0 0.00 0.00 0.00 68 1019.5
20260502040050 50 0 0.0 0.0 0.00 0.00 0.00 68 1019.5
20260502035548 50 0 0.0 0.0 0.00 0.00 0.00 68 1019.4
20260502035048 50 0 0.0 0.0 0.00 0.00 0.00 66 1019.4
20260502034554 51 0 0.0 0.0 0.00 0.00 0.00 65 1019.4
20260502034048 51 0 0.0 0.0 0.00 0.00 0.00 64 1019.4
20260502033548 52 0 0.0 0.0 0.00 0.00 0.00 63 1019.4
20260502033057 52 0 0.0 6.0 0.00 0.00 0.00 63 1019.3
20260502032548 52 0 0.0 7.0 0.00 0.00 0.00 63 1019.3
20260502032047 52 0 1.0 7.0 0.00 0.00 0.00 63 1019.2
20260502031553 52 0 0.0 6.0 0.00 0.00 0.00 63 1019.1
20260502031047 52 176 5.0 6.0 0.00 0.00 0.00 63 1019.0
20260502030548 52 190 4.0 6.0 0.00 0.00 0.00 63 1018.9
20260502030057 52 180 0.0 5.0 0.00 0.00 0.00 62 1018.9
20260502025549 52 0 0.0 0.0 0.00 0.00 0.00 61 1018.8
20260502025048 53 0 0.0 0.0 0.00 0.00 0.00 60 1018.9
20260502024551 53 0 0.0 0.0 0.00 0.00 0.00 59 1018.8
20260502024047 54 0 0.0 5.0 0.00 0.00 0.00 58 1018.7
20260502023548 55 186 1.0 7.0 0.00 0.00 0.00 57 1018.7
20260502023051 55 0 0.0 8.0 0.00 0.00 0.00 56 1018.7
20260502022549 55 207 5.0 8.0 0.00 0.00 0.00 56 1018.6
20260502022046 55 201 4.0 6.0 0.00 0.00 0.00 55 1018.6
20260502021552 56 205 4.0 8.0 0.00 0.00 0.00 53 1018.6
20260502021050 56 210 4.0 8.0 0.00 0.00 0.00 51 1018.5
20260502020547 56 200 4.0 6.0 0.00 0.00 0.00 51 1018.6
20260502020052 56 205 0.0 5.0 0.00 0.00 0.00 51 1018.6
20260502015549 56 0 0.0 0.0 0.00 0.00 0.00 51 1018.6
20260502015048 56 0 0.0 0.0 0.00 0.00 0.00 51 1018.5
20260502014555 56 0 0.0 0.0 0.00 0.00 0.00 51 1018.5
20260502014046 56 0 0.0 0.0 0.00 0.00 0.00 50 1018.3
20260502013547 56 0 0.0 4.0 0.00 0.00 0.00 50 1018.3
20260502013058 57 0 0.0 6.0 0.00 0.00 0.00 49 1018.2
20260502012547 57 128 4.0 6.0 0.00 0.00 0.00 49 1018.2
20260502012047 58 0 0.0 0.0 0.00 0.00 0.00 47 1018.3
20260502011605 59 0 0.0 0.0 0.00 0.00 0.00 46 1018.1
20260502011046 60 0 0.0 0.0 0.00 0.00 0.00 44 1018.1
20260502010545 60 0 0.0 0.0 0.00 0.00 0.00 43 1018.2
20260502010048 61 0 0.0 0.0 0.00 0.00 0.00 44 1018.1
20260502005547 60 0 0.0 0.0 0.00 0.00 0.00 44 1018.1
20260502005047 61 0 0.0 9.0 0.00 0.00 0.00 43 1018.1
20260502004602 61 0 3.0 9.0 0.00 0.00 0.00 42 1018.1
20260502004047 62 328 3.0 12.0 0.00 0.00 0.00 40 1017.9
20260502003546 62 255 6.0 12.0 0.00 0.00 0.00 40 1017.9
20260502003050 63 269 8.0 12.0 0.00 0.00 0.00 40 1017.7
20260502002548 63 243 8.0 12.0 0.00 0.00 0.00 39 1017.8
20260502002051 63 271 6.0 9.0 0.00 0.00 0.00 36 1017.8
20260502001553 64 238 5.0 12.0 0.00 0.00 0.00 37 1017.7
20260502001046 64 247 6.0 12.0 0.00 0.00 0.00 36 1017.6
20260502000549 64 251 9.0 13.0 0.00 0.00 0.00 36 1017.6
20260502000113 65 217 9.0 13.0 0.00 0.00 0.00 36 1017.6
20260501235545 65 275 9.0 12.0 0.00 0.00 0.00 34 1017.6
20260501235049 66 265 3.0 11.0 0.00 0.00 0.00 34 1017.6
20260501234551 65 220 5.0 11.0 0.00 0.00 0.00 35 1017.6
20260501234045 65 235 7.0 12.0 0.00 0.00 0.00 36 1017.5
20260501233547 65 215 8.0 14.0 0.00 0.00 0.00 36 1017.5
20260501233052 65 266 9.0 14.0 0.00 0.00 0.00 36 1017.5
20260501232546 65 260 7.0 12.0 0.00 0.00 0.00 36 1017.5
20260501232050 65 263 8.0 16.0 0.00 0.00 0.00 36 1017.5
20260501231600 65 0 7.0 16.0 0.00 0.00 0.00 36 1017.5
20260501231048 65 264 8.0 16.0 0.00 0.00 0.00 35 1017.5
20260501230549 65 228 7.0 15.0 0.00 0.00 0.00 35 1017.4
20260501230049 65 238 9.0 15.0 0.00 0.00 0.00 36 1017.5
20260501225547 65 257 9.0 14.0 0.00 0.00 0.00 36 1017.5
20260501225045 64 215 6.0 10.0 0.00 0.00 0.00 36 1017.5
20260501224603 63 262 4.0 9.0 0.00 0.00 0.00 36 1017.5
20260501224046 63 270 5.0 9.0 0.00 0.00 0.00 37 1017.6
20260501223551 63 283 6.0 9.0 0.00 0.00 0.00 36 1017.6
20260501223114 63 292 0.0 5.0 0.00 0.00 0.00 35 1017.6
20260501222548 63 264 1.0 10.0 0.00 0.00 0.00 36 1017.6
20260501222049 63 275 6.0 10.0 0.00 0.00 0.00 35 1017.6
20260501221611 64 280 1.0 11.0 0.00 0.00 0.00 36 1017.6
20260501221050 64 265 2.0 11.0 0.00 0.00 0.00 35 1017.6
20260501220548 64 247 4.0 11.0 0.00 0.00 0.00 35 1017.7
20260501220053 64 0 3.0 12.0 0.00 0.00 0.00 36 1017.8
20260501215547 64 277 7.0 12.0 0.00 0.00 0.00 35 1017.8
20260501215046 64 264 6.0 12.0 0.00 0.00 0.00 34 1017.9
20260501214553 64 248 2.0 12.0 0.00 0.00 0.00 33 1017.9
20260501214046 64 261 7.0 12.0 0.00 0.00 0.00 34 1017.9
20260501213545 63 266 2.0 9.0 0.00 0.00 0.00 35 1018.0
20260501213053 64 0 3.0 13.0 0.00 0.00 0.00 35 1018.0
20260501212547 64 0 5.0 13.0 0.00 0.00 0.00 35 1018.1
20260501212047 64 226 4.0 13.0 0.00 0.00 0.00 33 1018.2
20260501211549 64 0 0.0 11.0 0.00 0.00 0.00 33 1018.2
20260501211046 64 201 5.0 11.0 0.00 0.00 0.00 32 1018.3
20260501210547 64 0 3.0 10.0 0.00 0.00 0.00 32 1018.4
20260501210052 64 223 4.0 9.0 0.00 0.00 0.00 33 1018.5
20260501205547 63 207 6.0 11.0 0.00 0.00 0.00 33 1018.6
20260501205047 63 260 5.0 11.0 0.00 0.00 0.00 33 1018.7
20260501204553 64 245 5.0 11.0 0.00 0.00 0.00 32 1018.8
20260501204048 64 207 6.0 9.0 0.00 0.00 0.00 32 1018.8
20260501203551 65 0 1.0 6.0 0.00 0.00 0.00 32 1018.8